Change the Weather History Date:

Sunday, September 1, 2013

  Actual Average Record
Temperature  
Mean Temperature 76 °F -  
Max Temperature 82 °F 79 °F 98 °F (1973)
Min Temperature 71 °F 56 °F 45 °F (1963)
Cooling Degree Days 12    
Growing Degree Days 26 (Base 50)    
Moisture  
Dew Point 72 °F    
Average Humidity 89    
Maximum Humidity 97    
Minimum Humidity 71    
Precipitation  
Precipitation 0.41 in - - ()
Sea Level Pressure  
Sea Level Pressure 29.84 in    
Wind  
Wind Speed 4 mph (SSE)    
Max Wind Speed 9 mph    
Max Gust Speed -    
Visibility 8 miles    
Events Rain , Thunderstorm    
Averages and records for this station are not official NWS values.
T = Trace of Precipitation, MM = Missing Value Source: NWS Daily Summary

Daily Weather History Graph

Daily Weather History Graph

Search for Another Location

Airport or City:

Trip Planner

Search our weather history database for the weather conditions in past years. The results will help you decide how hot, cold, wet, or windy it might be!

Date:

Astronomy

Sep. 01, 2013 Rise Set
Actual Time 6:16 AM EDT 7:23 PM EDT
Civil Twilight 5:48 AM EDT 7:52 PM EDT
Nautical Twilight 5:13 AM EDT 8:26 PM EDT
Astronomical Twilight 4:38 AM EDT 9:01 PM EDT
Moon 2:33 AM EDT (9/1) 5:00 PM EDT (9/1)
Length of Visible Light 14h 03m
Length of Day
13h 06m
Waning Crescent, 14% of the Moon is Illuminated
Sep 1
Waning Crescent
Sep 5
New
Sep 12
First Quarter
Sep 19
Full
Sep 26
Last Quarter

Hourly Weather History & Observations

Time (EDT) Temp. Heat Index Dew Point Humidity Pressure Visibility Wind Dir Wind Speed Gust Speed Precip Events Conditions
12:27 AM 73.4 °F - 71.6 °F 94% 29.85 in 1.8 mi Variable 4.6 mph - 0.10 in Rain , Thunderstorm Heavy Thunderstorms and Rain
12:33 AM 73.4 °F - 71.6 °F 94% 29.85 in 0.8 mi Variable 3.5 mph - 0.20 in Rain , Thunderstorm Heavy Thunderstorms and Rain
12:40 AM 73.4 °F - 71.6 °F 94% 29.83 in 1.0 mi Calm Calm - 0.24 in Rain , Thunderstorm Thunderstorms and Rain
12:45 AM 73.4 °F - 71.6 °F 94% 29.83 in 3.0 mi Calm Calm - 0.25 in Rain , Thunderstorm Light Thunderstorms and Rain
12:53 AM 73.0 °F - 71.1 °F 93% 29.83 in 7.0 mi SSE 6.9 mph - 0.25 in Rain , Thunderstorm Light Rain
1:10 AM 73.4 °F - 71.6 °F 94% 29.82 in 8.0 mi SE 6.9 mph - 0.01 in Rain Light Rain
1:53 AM 73.0 °F - 72.0 °F 96% 29.82 in 7.0 mi South 3.5 mph - 0.01 in   Mostly Cloudy
2:45 AM 73.4 °F - 71.6 °F 94% 29.84 in 7.0 mi WNW 9.2 mph - 0.02 in Rain , Thunderstorm Light Rain
2:53 AM 73.9 °F - 70.0 °F 87% 29.84 in 5.0 mi NW 6.9 mph - 0.05 in Rain , Thunderstorm Rain
3:18 AM 73.4 °F - 68.0 °F 83% 29.82 in 10.0 mi Calm Calm - 0.02 in Rain , Thunderstorm Light Rain
3:42 AM 71.6 °F - 69.8 °F 94% 29.81 in 5.0 mi East 3.5 mph - 0.07 in Rain Rain
3:53 AM 71.1 °F - 70.0 °F 96% 29.82 in 7.0 mi East 3.5 mph - 0.09 in Rain Rain
4:43 AM 71.6 °F - 69.8 °F 94% 29.81 in 10.0 mi Calm Calm - 0.01 in Rain Light Rain
4:53 AM 72.0 °F - 69.1 °F 91% 29.82 in 10.0 mi Calm Calm - 0.01 in   Overcast
5:26 AM 71.6 °F - 69.8 °F 94% 29.83 in 10.0 mi Calm Calm - N/A   Overcast
5:53 AM 72.0 °F - 70.0 °F 93% 29.83 in 7.0 mi SSE 3.5 mph - 0.00 in Rain Light Rain
6:53 AM 72.0 °F - 71.1 °F 97% 29.85 in 7.0 mi Calm Calm - 0.00 in   Overcast
7:11 AM 73.4 °F - 71.6 °F 94% 29.85 in 8.0 mi Calm Calm - N/A Thunderstorm Overcast
7:48 AM 73.4 °F - 71.6 °F 94% 29.85 in 6.0 mi NNE 3.5 mph - N/A Thunderstorm Overcast
7:53 AM 73.9 °F - 72.0 °F 93% 29.85 in 6.0 mi NNE 3.5 mph - N/A   Overcast
8:09 AM 73.4 °F - 71.6 °F 94% 29.85 in 6.0 mi Calm Calm - N/A Thunderstorm Overcast
8:20 AM 73.4 °F - 71.6 °F 94% 29.85 in 6.0 mi Calm Calm - N/A   Overcast
8:28 AM 73.4 °F - 71.6 °F 94% 29.85 in 6.0 mi SE 3.5 mph - N/A   Overcast
8:36 AM 73.4 °F - 71.6 °F 94% 29.85 in 6.0 mi Calm Calm - N/A   Overcast
8:50 AM 75.2 °F - 73.4 °F 94% 29.85 in 4.0 mi Calm Calm - 0.00 in Rain Light Rain
8:53 AM 75.0 °F - 73.0 °F 94% 29.85 in 5.0 mi Calm Calm - 0.00 in Rain Light Rain
9:51 AM 77.0 °F - 73.4 °F 89% 29.85 in 8.0 mi South 4.6 mph - 0.00 in   Mostly Cloudy
9:53 AM 77.0 °F - 73.0 °F 88% 29.85 in 7.0 mi South 4.6 mph - 0.00 in   Mostly Cloudy
10:53 AM 79.0 °F - 73.0 °F 82% 29.85 in 10.0 mi South 6.9 mph - N/A   Overcast
11:33 AM 78.8 °F - 73.4 °F 83% 29.85 in 10.0 mi South 4.6 mph - N/A   Overcast
11:53 AM 79.0 °F - 73.9 °F 84% 29.85 in 9.0 mi SSE 6.9 mph - N/A   Overcast
12:53 PM 80.1 °F 84.2 °F 73.0 °F 79% 29.84 in 8.0 mi South 8.1 mph - N/A   Mostly Cloudy
1:53 PM 81.0 °F 85.8 °F 73.0 °F 77% 29.84 in 10.0 mi South 8.1 mph - N/A   Mostly Cloudy
2:02 PM 80.6 °F 85.4 °F 73.4 °F 79% 29.84 in 10.0 mi SSE 8.1 mph - N/A   Scattered Clouds
2:53 PM 80.1 °F 84.2 °F 73.0 °F 79% 29.85 in 10.0 mi South 5.8 mph - N/A   Partly Cloudy
3:07 PM 80.6 °F 85.4 °F 73.4 °F 79% 29.84 in 10.0 mi South 5.8 mph - N/A   Mostly Cloudy
3:14 PM 80.6 °F 85.4 °F 73.4 °F 79% 29.83 in 10.0 mi SSE 6.9 mph - N/A   Scattered Clouds
3:53 PM 82.0 °F 86.7 °F 72.0 °F 71% 29.82 in 10.0 mi SSE 9.2 mph - N/A   Mostly Cloudy
4:53 PM 80.1 °F 83.6 °F 71.1 °F 74% 29.81 in 10.0 mi SSE 8.1 mph - N/A   Mostly Cloudy
5:53 PM 79.0 °F - 72.0 °F 79% 29.82 in 10.0 mi SSE 6.9 mph - N/A   Clear
6:53 PM 78.1 °F - 72.0 °F 81% 29.83 in 10.0 mi South 8.1 mph - N/A   Clear
7:53 PM 77.0 °F - 72.0 °F 84% 29.82 in 10.0 mi South 5.8 mph - N/A   Clear
8:53 PM 75.9 °F - 72.0 °F 87% 29.84 in 10.0 mi Calm Calm - N/A   Clear
9:37 PM 75.2 °F - 71.6 °F 89% 29.85 in 10.0 mi SSE 4.6 mph - N/A   Mostly Cloudy
9:53 PM 75.0 °F - 72.0 °F 90% 29.85 in 10.0 mi SSE 3.5 mph - N/A   Overcast
10:53 PM 75.0 °F - 72.0 °F 90% 29.84 in 10.0 mi Calm Calm - N/A   Overcast
11:53 PM 75.0 °F - 72.0 °F 90% 29.84 in 10.0 mi Calm Calm - N/A   Overcast